Regional Weather Roundup
Issued by NWS Portland, ME

Current Version | Previous Version | Text Only | Print | Product List | Glossary On
Versions: 1 2 3 4 5 6 7 8 9 10 11 12 13 14 15 16 17 18 19 20 21 22 23 24 25 26 27 28 29 30 31 32 33 34 35 36 37 38 39 40 41 42 43 44 45 46 47 48 49 50
000 ASUS41 KGYX 262210 RWRGYX WEATHER ROUNDUP FOR MAINE AND NEW HAMPSHIRE NATIONAL WEATHER SERVICE GRAY ME 500 PM EST MON JAN 26 2015 MEZ002-005-006-010-012-015-018-020-021-024-026-027-029-262300- MAINE CITY SKY/WX TMP DP RH WIND PRES REMARKS PORTLAND CLOUDY 20 1 43 N8 30.17R SANFORD CLOUDY 18 1 49 NE12 30.13S WCI 5 BAR HARBOR CLOUDY 14 1 57 NE7 30.21F WISCASSET CLOUDY 17 0 47 NE6 30.20R ROCKLAND CLOUDY 18 3 53 NE9 30.18S FRYEBURG CLOUDY 17 -6 35 E5 30.15R LEWISTONAUBURN CLOUDY 16 -8 35 NE5 30.16R AUGUSTA CLOUDY 13 -7 40 N6 30.18R WATERVILLE CLOUDY 12 -9 37 N8 30.15F BANGOR CLOUDY 12 -4 48 N6 30.22S GREENVILLE N/A 6 -8 52 N6 30.07R MILLINOCKET CLEAR 11 -6 46 NE5 30.23R HOULTON CLEAR 5 -11 47 E7 30.23R PRESQUE ISLE CLEAR 7 -20 28 CALM 30.23R FRENCHVILLE CLEAR 1 -12 54 N6 30.16R CARIBOU CLEAR 4 -12 48 CALM 30.22R $$ NHZ002-005-008-009-011-012-014-262300- NEW HAMPSHIRE CITY SKY/WX TMP DP RH WIND PRES REMARKS PORTSMOUTH FLURRIES 21 14 72 NE13 30.10R WCI 9 ROCHESTER CLOUDY 18 4 54 NE9 30.11S NASHUA FLURRIES 21 12 68 E9G17 30.08S MANCHESTER CLOUDY 20 11 68 NE13G21 30.07S WCI 7 CONCORD CLOUDY 20 7 57 NE10 30.10R WCI 9 LACONIA CLOUDY 18 -2 41 E12 30.08S WCI 5 PLYMOUTH FAIR 19 1 45 CALM 30.09S BERLIN MOCLDY 13 -3 49 CALM 30.06S WHITEFIELD MOCLDY 15 -3 44 CALM 30.06R JAFFREY CLOUDY 18 6 59 NE6 29.99F KEENE CLOUDY 19 3 49 N8 30.04R LEBANON CLOUDY 20 -3 36 NE6 30.07R MT WASHINGTON MOCLDY 12 -24 18 NW6 N/A $$ VTZ005-007-008-262300- VERMONT CITY SKY/WX TMP DP RH WIND PRES REMARKS ST JOHNSBURY N/A 14 -1 51 MISG 30.08R MONTPELIER PTCLDY 11 -1 58 CALM 30.08S BURLINGTON CLOUDY 10 -1 61 NW9 30.14R $$ MAZ007-012-024-CTZ003-RIZ002-NYZ038-NYZ072-262300- SOUTHERN NEW ENGLAND AND NY CITY SKY/WX TMP DP RH WIND PRES REMARKS BOSTON LGT SNOW 28 22 78 NE20G29 30.04S WCI 15 WORCESTER LGT SNOW 17 14 88 NE15G22 29.95S FOG WCI 2 NANTUCKET LGT SNOW 33 30 88 NE21G32 29.90F VSB 1 PROVIDENCE LGT SNOW 28 25 88 NE14 29.97S FOG WCI 17 HARTFORD LGT SNOW 21 15 78 N15 29.98S WCI 8 ALBANY LGT SNOW 17 5 59 N8 30.02S NEW YORK CITY SNOW 26 24 92 NE25G36 29.84F VSB 1/4 WCI 11 $$ ANZ081-ANZ082-ANZ150-NHZ014-MEZ023>029-262300- COASTAL MARINE OBSERVATIONS STATION/POSITION TIME TEMP WIND PRES WAVE AIR SEA DIR/SP/G HT/PER (UTC) (F) (DEG/KT/KT) (MB) (FT/S) MOUNT DESERT ROC 2200 21 1021.2F MATINICUS ROCK 2200 60/ 19/ 23 1021.6R PORTLAND WX BUOY 2150 23 40 50/ 17/ 23 1020.4S 3/11 WELLS 2100 20 35 40/ 13/ 16 1019.5F ISLE OF SHOALS 2200 25 50/ 28/ 33 1017.7F JEFFREYS LEDGE 2121 44 N/A 5/ 5 CASHES LEDGE BUO 2150 27 45 60/ 19/ 23 1019.2R 5/10 $$ .............KEY.............. WCI - WIND CHILL TC - TEMPERATURE IN CELSIUS VSB - VISIBILITY IN MILES HX - HEAT INDEX FAIR- INDICATES FEW OR NO CLOUDS BELOW 12,000 FT, WITH NO SIGNIFICANT WEATHER AND/OR OBSTRUCTIONS TO VISIBILITY.

USA.gov is the U.S. government's official web portal to all federal, state and local government web resources and services.